Location: Petržalka
(48.1109°N, 17.1116°E)
Time: 09:12:34
(UTC+02:00)

OTV 5 (USA 277) - Visible Passes

Search period start: 23 October 2019 00:00
Search period end: 01 November 2019 23:00
Orbit: 310 x 324 km, 54.5° (Epoch: 17 October)

Date Brightness Start Highest point End Pass type
(mag) Time Alt. Az. Time Alt. Az. Time Alt. Az.
28 Oct ? 18:07:07 10° S 18:07:46 13° SSE 18:07:46 13° SSE visible
29 Oct ? 18:20:38 10° SSW 18:22:16 26° S 18:22:16 26° S visible
30 Oct ? 18:34:53 10° SW 18:36:39 36° SW 18:36:39 36° SW visible
31 Oct ? 17:15:51 10° SSW 17:18:03 22° SE 17:20:03 11° E visible
31 Oct ? 18:49:33 10° WSW 18:50:56 25° W 18:50:56 25° W visible
01 Nov ? 17:29:48 10° SW 17:32:27 52° SE 17:34:15 18° ENE visible
01 Nov ? 19:04:26 10° W 19:05:08 15° WNW 19:05:08 15° WNW visible
